[[{"header":{"parameterUnit":"m.s-1","parameterCategory":2,"la1":30.2991,"la2":30.254,"lo1":-89.0895,"lo2":-89.0444,"dy":0.0017,"dx":0.0017,"nx":28,"ny":28,"refTime":"2025-06-14T21:00:00:Z","depth":"0","parameterNumber":2,"parameterNumberName":"U-component_of_CURRENTS"},"data":[0,0,0,0,0,0,0,0,0,0,0,0,0,0,0,0,0,0,0,0,0,0,0,0,0,0,0,0,0,0,0,0,0,0,0,0,0,0,0,0,0,0,0,0,0,0,0,0,0,0,0,0,0,0,0,0,0,0,0.3823,0.3824,0,0.3875,0.3875,0.3876,0.3849,0.3848,0.3847,0.3845,0.3855,0.3856,0.3858,0,0,0,0,0,0,0,0,0,0,0,0,0,0.3748,0.3749,0.3823,0.3824,0.3825,0.3875,0.3875,0.3876,0.3849,0.3848,0.3846,0.3845,0.3855,0.3856,0.3858,0,0,0,0,0,0,0,0,0,0,0,0,0,0.3786,0.3749,0.3823,0.3819,0.382,0.3875,0.3875,0.3876,0.3849,0.3848,0.3846,0.3844,0.3854,0.3856,0.3858,0.3905,0,0,0.3864,0.3865,0,0,0,0,0,0,0,0,0.3783,0.3788,0.3819,0.382,0.382,0.3856,0.3852,0.3884,0.385,0.3836,0.3845,0.3843,0.3854,0.3856,0.3867,0.3906,0.3906,0.3864,0.3865,0.3866,0.3867,0,0,0,0,0,0,0,0.3781,0.3786,0.3841,0.382,0.3821,0.3831,0.3834,0.3859,0.3851,0.3837,0.3835,0.3846,0.3854,0.3865,0.3867,0.3906,0.3864,0.3866,0.3867,0.3868,0.4024,0.4027,0,0,0,0,0,0,0.3779,0.3784,0.384,0.3843,0.38,0.3834,0.3837,0.3844,0.3852,0.3853,0.3847,0.3844,0.3862,0.3865,0.3867,0.4009,0.3866,0.3868,0.3869,0.4021,0.4024,0.4028,0,0,0,0,0,0,0.3777,0.3784,0.3838,0.3816,0.3824,0.3837,0.3845,0.3846,0.3861,0.3861,0.3859,0.3861,0.3861,0.3864,0.3912,0.4005,0.3869,0.3871,0.4017,0.4022,0.4026,0.4237,0,0,0,0,0,0,0.3775,0.3782,0.379,0.3816,0.3825,0.3886,0.3847,0.3848,0.3871,0.3867,0.3873,0.3872,0.386,0.391,0.3914,0.4005,0.3872,0.4014,0.4019,0.4025,0.4226,0.4248,0.4267,0,0,0,0,0,0.3772,0.3796,0.379,0.3797,0.3834,0.3888,0.3894,0.3895,0.3873,0.3898,0.3905,0.3872,0.3947,0.3914,0.3919,0.4013,0.4011,0.4018,0.4024,0.4217,0.4244,0.4266,0,0,0,0,0,0,0.3766,0.3796,0.379,0.382,0.3856,0.3884,0.3906,0.3907,0.3933,0.3925,0.3912,0.3914,0.3999,0.3964,0.3927,0.4069,0.3973,0.3981,0.4119,0.4143,0.4163,0.4196,0.3874,0,0,0,0,0,0.3769,0.3794,0.3826,0.3853,0.3869,0.3889,0.3909,0.3915,0.3941,0.3948,0.3961,0.3976,0.4032,0.405,0.4078,0.4151,0.4148,0.421,0.423,0.4248,0.4276,0.4324,0.4353,0.4049,0.4049,0.4049,0,0,0.3774,0.3796,0.3808,0.3854,0.3874,0.3941,0.3896,0.3939,0.4011,0.3948,0.4041,0.4052,0.4066,0.4163,0.4196,0.4145,0.4343,0.4256,0.4272,0.4291,0.4334,0.4364,0.4391,0.4054,0.4053,0.4052,0,0,0.3808,0.3817,0.385,0.3894,0.3939,0.3974,0.3992,0.4035,0.4066,0.4151,0.4145,0.4213,0.4259,0.4319,0.4349,0.4492,0.4452,0.4485,0.4619,0.4667,0.4693,0.4715,0.4799,0.4827,0.4491,0.4491,0.4491,0,0.3808,0.3861,0.3872,0.3929,0.3985,0.3998,0.4072,0.4128,0.4188,0.4243,0.4199,0.4334,0.4353,0.4505,0.457,0.4549,0.456,0.4533,0.4697,0.4718,0.4738,0.4817,0.4845,0.4502,0.4501,0.45,0.4499,0,0.3876,0.3927,0.3958,0.4044,0.411,0.4174,0.4257,0.4326,0.4361,0.4419,0.455,0.4575,0.4644,0.4685,0.4686,0.485,0.4813,0.4724,0.4642,0.4782,0.4856,0.4882,0.4518,0.4514,0.4511,0.4508,0,0,0.3844,0.3977,0.3986,0.4059,0.4176,0.4244,0.4384,0.4522,0.4603,0.4683,0.4792,0.4939,0.4921,0.4953,0.4953,0.5026,0.5214,0.495,0.4947,0.5048,0.535,0.5169,0.5179,0.5137,0.5141,0.5145,0.5364,0,0.389,0.402,0.4084,0.4243,0.4328,0.4417,0.4541,0.4672,0.4753,0.486,0.4943,0.5029,0.5029,0.5044,0.5138,0.5173,0.5282,0.5165,0.5185,0.5188,0.502,0.5202,0.4909,0.5063,0.5389,0.5393,0.5396,0,0.3923,0.4022,0.4158,0.4353,0.4394,0.4489,0.4682,0.4795,0.4959,0.5013,0.5124,0.5144,0.5316,0.5231,0.5434,0.5347,0.5393,0.5421,0.5426,0.5198,0.5053,0.4964,0.5096,0.4966,0.5435,0.5432,0.5429,0,0.3892,0.4081,0.4194,0.4259,0.4463,0.4547,0.4663,0.4832,0.4944,0.5087,0.5158,0.5305,0.5373,0.5457,0.5536,0.5487,0.5711,0.5623,0.5533,0.5522,0.5247,0.5201,0.5259,0.5783,0.5782,0.5782,0.5781,0,0.3907,0.4004,0.4181,0.4243,0.4408,0.4538,0.4692,0.4817,0.4972,0.5092,0.5209,0.53,0.5427,0.5548,0.5597,0.5654,0.5762,0.5617,0.5575,0.5313,0.5273,0.5116,0.5074,0.579,0.5788,0.5786,0.5785,0,0.3829,0.3939,0.4096,0.431,0.4384,0.4492,0.4724,0.4806,0.4968,0.5113,0.5161,0.5363,0.5466,0.5583,0.5722,0.5721,0.5606,0.5768,0.5473,0.539,0.5104,0.5082,0.495,0.4815,0.571,0.5707,0.5704,0,0.3792,0.385,0.4108,0.4198,0.4286,0.4464,0.4553,0.4768,0.4848,0.5126,0.5166,0.5346,0.5397,0.5568,0.554,0.5591,0.5487,0.5401,0.5244,0.51,0.5049,0.4891,0.4778,0.5012,0.5004,0.4997,0.4992,0,0.3728,0.3806,0.3941,0.4124,0.4244,0.4408,0.4553,0.4632,0.4838,0.4938,0.5059,0.513,0.5252,0.5137,0.5211,0.521,0.5089,0.5262,0.5185,0.4586,0.4348,0.4188,0.4903,0.4933,0.4939,0.4943,0.4946,0.4949,0.3666,0.374,0.3898,0.406,0.419,0.4295,0.4317,0.4437,0.4532,0.4583,0.4799,0.476,0.4815,0.4811,0.4798,0.4588,0.4652,0.4457,0.4484,0.4371,0.4091,0.4691,0.4594,0.4598,0.4601,0.4604,0.4607,0,0.3582,0.3679,0.3822,0.3982,0.4013,0.4148,0.4246,0.4173,0.4124,0.4236,0.4246,0.4208,0.4118,0.4153,0.4031,0.3874,0.3727,0.378,0.3524,0.3484,0.4084,0.3896,0.3549,0.3549,0.355,0.355,0.355,0.355,0.3547,0.3627,0.3706,0.375,0.3815,0.375,0.3739,0.3658,0.3665,0.3533,0.3444,0.3491,0.3674,0.367,0.3482,0.3389,0.3177,0.2962,0.3074,0.3522,0.3587,0.3649,0.3464,0.3032,0.3031,0.2262,0.2256,0.2252]},{"header":{"parameterUnit":"m.s-1","parameterCategory":2,"la1":30.2991,"la2":30.254,"lo1":-89.0895,"lo2":-89.0444,"dy":0.0017,"dx":0.0017,"nx":28,"ny":28,"refTime":"2025-06-14T21:00:00:Z","depth":"0","parameterNumber":3,"parameterNumberName":"V-component_of_CURRENTS"},"data":[0,0,0,0,0,0,0,0,0,0,0,0,0,0,0,0,0,0,0,0,0,0,0,0,0,0,0,0,0,0,0,0,0,0,0,0,0,0,0,0,0,0,0,0,0,0,0,0,0,0,0,0,0,0,0,0,0,0,-0.0014,-0.0015,0,-0.0101,-0.0102,-0.0103,-0.0167,-0.0168,-0.0168,-0.0168,-0.0292,-0.0295,-0.0298,0,0,0,0,0,0,0,0,0,0,0,0,0,0.0014,0.0014,-0.0014,-0.0015,-0.0016,-0.01,-0.0102,-0.0104,-0.0167,-0.0168,-0.0168,-0.0168,-0.0291,-0.0294,-0.0298,0,0,0,0,0,0,0,0,0,0,0,0,0,-0.0032,0.0014,-0.0014,-0.0055,-0.0059,-0.01,-0.0102,-0.0104,-0.0167,-0.0168,-0.0168,-0.0168,-0.0289,-0.0294,-0.0299,-0.0322,0,0,-0.0313,-0.0315,0,0,0,0,0,0,0,0,-0.0029,-0.0034,-0.0048,-0.0052,-0.0057,-0.012,-0.0137,-0.0177,-0.0167,-0.0131,-0.0168,-0.0168,-0.0235,-0.0244,-0.0265,-0.0328,-0.0334,-0.0313,-0.0316,-0.0318,-0.032,0,0,0,0,0,0,0,-0.0026,-0.0031,-0.0053,-0.0049,-0.0054,-0.0096,-0.0102,-0.0146,-0.0184,-0.0134,-0.0138,-0.014,-0.0238,-0.026,-0.0268,-0.0335,-0.0313,-0.0317,-0.032,-0.0322,-0.0392,-0.0391,0,0,0,0,0,0,-0.0002,-0.0027,-0.005,-0.0055,-0.0038,-0.0096,-0.0103,-0.0103,-0.0183,-0.0194,-0.014,-0.0143,-0.0252,-0.0263,-0.0273,-0.0285,-0.0318,-0.0323,-0.0325,-0.0393,-0.0391,-0.039,0,0,0,0,0,0,-0.0001,-0.0003,-0.0047,-0.004,-0.0048,-0.0095,-0.0095,-0.0104,-0.0121,-0.0186,-0.0199,-0.0145,-0.0253,-0.0266,-0.0312,-0.0291,-0.0325,-0.0329,-0.0394,-0.0392,-0.0391,-0.0323,0,0,0,0,0,0,0.0,-0.0002,0.0001,-0.0038,-0.0047,-0.0057,-0.0094,-0.0106,-0.012,-0.0125,-0.0195,-0.0207,-0.0254,-0.0305,-0.0317,-0.0298,-0.0333,-0.0395,-0.0393,-0.0391,-0.0326,-0.0319,-0.0313,0,0,0,0,0,0.0002,0.0017,0.0002,-0.0001,-0.0039,-0.0056,-0.0065,-0.0103,-0.0119,-0.012,-0.0176,-0.0205,-0.03,-0.0309,-0.0323,-0.0305,-0.0396,-0.0394,-0.0391,-0.0329,-0.0321,-0.0313,0,0,0,0,0,0,0.0031,0.0011,-0.0006,0.0002,-0.002,-0.0065,-0.0068,-0.0093,-0.0138,-0.0143,-0.021,-0.0226,-0.0256,-0.0287,-0.0294,-0.0316,-0.0346,-0.0346,-0.0293,-0.0286,-0.0279,-0.0222,-0.0337,0,0,0,0,0,0.0041,0.0046,0.0018,0.0023,0.0018,-0.0024,-0.0037,-0.0059,-0.01,-0.0119,-0.017,-0.0217,-0.0258,-0.0278,-0.0322,-0.034,-0.0328,-0.0331,-0.0325,-0.0319,-0.028,-0.0238,-0.0223,-0.0383,-0.0383,-0.0383,0,0,0.0052,0.0043,0.0044,0.003,0.0007,0.0004,-0.0033,-0.0041,-0.0049,-0.0126,-0.0157,-0.0204,-0.026,-0.0286,-0.0298,-0.0308,-0.0273,-0.0316,-0.0311,-0.0274,-0.0234,-0.0218,-0.0204,-0.0382,-0.0382,-0.0382,0,0,0.0088,0.0073,0.0091,0.0078,0.0061,0.0033,0.0038,-0.0,-0.0022,-0.0056,-0.011,-0.0127,-0.0208,-0.0225,-0.0249,-0.0224,-0.0246,-0.0251,-0.0167,-0.0128,-0.0114,-0.0101,-0.0089,-0.0076,-0.024,-0.024,-0.0239,0,0.0103,0.012,0.0093,0.0106,0.0099,0.0053,0.0066,0.0037,-0.0014,-0.0011,-0.0053,-0.0105,-0.0165,-0.0157,-0.0163,-0.0205,-0.0201,-0.0198,-0.0117,-0.0104,-0.0092,-0.0082,-0.0068,-0.0236,-0.0236,-0.0237,-0.0237,0,0.0151,0.016,0.0171,0.0168,0.0155,0.0161,0.0123,0.0112,0.0078,0.0061,0.0061,-0.0004,-0.0018,-0.005,-0.0114,-0.0057,-0.0091,-0.012,-0.0132,-0.0071,-0.0066,-0.0053,-0.0231,-0.0232,-0.0233,-0.0234,0,0,0.0203,0.0204,0.021,0.022,0.019,0.0192,0.0181,0.0179,0.0217,0.0164,0.0216,0.014,0.0136,0.0112,0.0055,0.0078,0.0131,0.0013,0.0014,0.0035,0.0199,0.0149,0.0158,0.0108,0.0111,0.0114,0.016,0,0.0249,0.029,0.0271,0.03,0.0315,0.0274,0.0281,0.0274,0.0266,0.0303,0.0272,0.0289,0.0187,0.0196,0.0202,0.0157,0.0173,0.012,0.0131,0.0131,0.0088,0.0176,0.0164,0.0204,0.0173,0.0175,0.0177,0,0.0309,0.0325,0.0364,0.0383,0.039,0.0394,0.0425,0.0426,0.0458,0.0463,0.0489,0.0469,0.0489,0.0397,0.0393,0.0358,0.029,0.0252,0.0252,0.0204,0.0109,0.0142,0.0229,0.0057,0.0197,0.0196,0.0194,0,0.0372,0.0397,0.043,0.0431,0.0441,0.0455,0.0454,0.0483,0.0538,0.0582,0.0664,0.0654,0.0699,0.0625,0.0519,0.0465,0.0518,0.0435,0.0332,0.0325,0.0323,0.0312,0.0263,0.0451,0.0451,0.0451,0.0451,0,0.0435,0.0466,0.0464,0.0486,0.0551,0.052,0.0614,0.0617,0.0692,0.0825,0.0764,0.0892,0.0765,0.0767,0.0614,0.0532,0.0596,0.0387,0.0357,0.034,0.033,0.0184,0.0076,0.0453,0.0452,0.0452,0.0452,0,0.0504,0.0502,0.0549,0.0567,0.0585,0.0625,0.071,0.08,0.0845,0.1023,0.1056,0.1107,0.1113,0.0965,0.0874,0.0698,0.049,0.0529,0.05,0.0466,0.018,0.0076,0.0022,-0.0047,0.0438,0.0438,0.0437,0,0.0544,0.0573,0.0619,0.0672,0.0683,0.075,0.0824,0.0864,0.0983,0.1185,0.1299,0.1359,0.1438,0.126,0.0962,0.0713,0.0521,0.0509,0.0403,0.0203,0.0067,-0.0017,-0.0077,0.0414,0.0414,0.0413,0.0413,0,0.062,0.0632,0.0677,0.079,0.0864,0.0973,0.108,0.1199,0.131,0.1477,0.1704,0.1781,0.1617,0.1379,0.0999,0.0803,0.0378,0.0488,0.0316,0.0091,-0.003,-0.0124,0.0314,0.0408,0.0408,0.0409,0.0409,0.0409,0.0684,0.0738,0.0815,0.0925,0.1036,0.1205,0.1322,0.1474,0.169,0.1946,0.1989,0.2119,0.172,0.1217,0.0924,0.0352,0.0355,0.0159,0.0065,0.0009,-0.0095,0.0317,0.0346,0.0346,0.0346,0.0346,0.0346,0,0.0772,0.0843,0.0956,0.1109,0.1272,0.1298,0.1518,0.1654,0.1926,0.2122,0.2294,0.2156,0.1671,0.1144,0.0375,-0.0013,-0.0152,-0.0217,-0.0333,-0.0363,0.0046,0.0004,-0.008,-0.008,-0.0079,-0.0079,-0.0079,-0.0079,0.083,0.0951,0.1013,0.1294,0.142,0.1636,0.1769,0.196,0.2121,0.2349,0.24,0.2405,0.1977,0.0657,-0.0206,-0.0385,-0.0656,-0.0727,-0.0835,-0.0579,-0.0551,-0.0525,-0.0588,-0.0795,-0.0796,-0.12,-0.1205,-0.1208]}],[{"header":{"parameterUnit":"m.s-1","parameterCategory":2,"la1":30.2991,"la2":30.254,"lo1":-89.0895,"lo2":-89.0444,"dy":0.0017,"dx":0.0017,"nx":28,"ny":28,"refTime":"2025-06-14T21:00:00:Z","depth":"2","parameterNumber":2,"parameterNumberName":"U-component_of_CURRENTS"},"data":[0,0,0,0,0,0,0,0,0,0,0,0,0,0,0,0,0,0,0,0,0,0,0,0,0,0,0,0,0,0,0,0,0,0,0,0,0,0,0,0,0,0,0,0,0,0,0,0,0,0,0,0,0,0,0,0,0,0,0.2904,0.2906,0,0.2967,0.2966,0.2966,0.2959,0.2959,0.2959,0.2959,0.2991,0.2992,0.2992,0,0,0,0,0,0,0,0,0,0,0,0,0,0.282,0.282,0.2904,0.2906,0.2908,0.2967,0.2966,0.2966,0.2959,0.2959,0.2959,0.2959,0.2991,0.2992,0.2992,0,0,0,0,0,0,0,0,0,0,0,0,0,0.2855,0.282,0.2904,0.2921,0.2924,0.2967,0.2966,0.2966,0.2959,0.2959,0.2959,0.2959,0.299,0.2992,0.2993,0.2995,0,0,0.2996,0.2996,0,0,0,0,0,0,0,0,0.2853,0.2856,0.2916,0.292,0.2923,0.2966,0.2949,0.2978,0.2959,0.2932,0.2959,0.2959,0.2988,0.2989,0.2983,0.2996,0.2998,0.2996,0.2997,0.2997,0.2997,0,0,0,0,0,0,0,0.285,0.2854,0.2916,0.2919,0.2923,0.294,0.2943,0.2954,0.2948,0.2934,0.2937,0.2964,0.2988,0.2982,0.2984,0.2998,0.2996,0.2997,0.2998,0.2998,0.3151,0.3154,0,0,0,0,0,0,0.2865,0.2851,0.2914,0.2919,0.2902,0.2942,0.2945,0.2942,0.2948,0.2954,0.2964,0.2964,0.298,0.2983,0.2985,0.3122,0.2997,0.2998,0.2999,0.3147,0.3152,0.3155,0,0,0,0,0,0,0.2863,0.2869,0.2912,0.2899,0.2907,0.2944,0.294,0.2943,0.2952,0.2973,0.2975,0.2973,0.298,0.2984,0.3032,0.3118,0.2999,0.3,0.3143,0.3149,0.3153,0.3311,0,0,0,0,0,0,0.2859,0.2866,0.2876,0.2899,0.2909,0.2976,0.2941,0.2945,0.2974,0.2974,0.2982,0.2984,0.2981,0.3031,0.3033,0.3118,0.3,0.3139,0.3146,0.3152,0.3301,0.3321,0.3337,0,0,0,0,0,0.2855,0.2869,0.2875,0.2885,0.2917,0.298,0.2986,0.3005,0.2974,0.3004,0.3007,0.2984,0.3074,0.3034,0.3036,0.3123,0.3136,0.3144,0.3151,0.3293,0.3317,0.3337,0,0,0,0,0,0,0.2844,0.2872,0.2878,0.2901,0.2958,0.2984,0.3005,0.3012,0.3031,0.3025,0.3014,0.3019,0.3096,0.3082,0.3038,0.3187,0.3107,0.3115,0.3214,0.3236,0.3254,0.3294,0.3001,0,0,0,0,0,0.2847,0.2857,0.2907,0.2932,0.2949,0.2973,0.2998,0.3023,0.3046,0.3052,0.3061,0.308,0.3126,0.3157,0.3179,0.3252,0.3253,0.3314,0.3332,0.3347,0.3383,0.3455,0.3483,0.318,0.318,0.318,0,0,0.285,0.2872,0.2877,0.2932,0.2951,0.2982,0.2985,0.3038,0.308,0.3054,0.3096,0.3132,0.3155,0.3247,0.3283,0.3251,0.3432,0.3357,0.337,0.3398,0.3466,0.3495,0.3521,0.3186,0.3185,0.3184,0,0,0.2872,0.2875,0.2894,0.2941,0.3009,0.3012,0.3031,0.3077,0.3115,0.3171,0.3184,0.3282,0.3298,0.3386,0.3415,0.3543,0.3513,0.3548,0.3689,0.3759,0.3785,0.3807,0.3837,0.3861,0.3572,0.3572,0.3572,0,0.2883,0.2903,0.2921,0.2965,0.3022,0.3017,0.308,0.3097,0.3167,0.3243,0.32,0.3345,0.3372,0.354,0.3613,0.359,0.3604,0.3604,0.3784,0.3806,0.3827,0.3852,0.3876,0.358,0.358,0.3579,0.3578,0,0.2925,0.2949,0.2965,0.2996,0.3067,0.3114,0.317,0.3211,0.3229,0.3296,0.346,0.3516,0.3623,0.3665,0.3683,0.3883,0.3836,0.3785,0.3729,0.3867,0.3884,0.3907,0.3593,0.359,0.3587,0.3585,0,0,0.2909,0.2978,0.298,0.3019,0.3101,0.3149,0.3224,0.3335,0.3391,0.3484,0.3626,0.3772,0.3843,0.3887,0.3948,0.4051,0.4221,0.4011,0.4011,0.4042,0.4361,0.4147,0.415,0.4202,0.4207,0.4211,0.4311,0,0.2933,0.3011,0.3062,0.3128,0.3173,0.3237,0.3294,0.3414,0.3501,0.3615,0.3768,0.392,0.3909,0.4024,0.4113,0.4203,0.4291,0.4198,0.4223,0.4224,0.4018,0.4173,0.3851,0.3897,0.4332,0.4336,0.4338,0,0.2951,0.3008,0.31,0.32,0.3226,0.3261,0.34,0.349,0.3666,0.3745,0.3937,0.4061,0.4303,0.4237,0.4432,0.4372,0.4398,0.4433,0.4435,0.4202,0.4053,0.3832,0.3921,0.4376,0.4373,0.437,0.4367,0,0.2926,0.3026,0.3097,0.3139,0.3239,0.3309,0.338,0.3552,0.3663,0.3913,0.403,0.4247,0.4382,0.448,0.4571,0.4539,0.4712,0.4647,0.4469,0.4451,0.4166,0.4114,0.4774,0.4774,0.4774,0.4774,0.4773,0,0.2914,0.2962,0.3071,0.3098,0.3173,0.3318,0.3447,0.352,0.3725,0.3878,0.4131,0.4257,0.4458,0.459,0.4629,0.4604,0.4743,0.4536,0.4486,0.4206,0.4159,0.4554,0.4527,0.4777,0.4776,0.4776,0.4775,0,0.285,0.2917,0.2986,0.3107,0.315,0.3226,0.3439,0.357,0.3737,0.3953,0.4082,0.4312,0.4463,0.4605,0.4743,0.4646,0.4685,0.4631,0.4272,0.4177,0.4366,0.4346,0.4473,0.4467,0.4461,0.4457,0.4453,0,0.2815,0.2847,0.2963,0.3026,0.3073,0.3224,0.3355,0.3538,0.3694,0.3951,0.4053,0.4296,0.4364,0.4451,0.4415,0.4428,0.4559,0.4106,0.3986,0.4408,0.4348,0.4336,0.4324,0.368,0.367,0.3662,0.3656,0,0.2771,0.2804,0.2869,0.2969,0.3094,0.3222,0.3413,0.3477,0.3725,0.3845,0.3935,0.4021,0.4117,0.3948,0.3974,0.3939,0.4083,0.3936,0.4524,0.3774,0.366,0.3599,0.3614,0.3585,0.3592,0.3597,0.3601,0.3604,0.2737,0.2771,0.2856,0.2923,0.3065,0.3154,0.3177,0.3352,0.3432,0.3504,0.366,0.3613,0.3662,0.3481,0.3392,0.3349,0.3618,0.3484,0.3511,0.3545,0.3405,0.3284,0.3112,0.3116,0.312,0.3123,0.3126,0,0.2691,0.2755,0.2834,0.2878,0.2937,0.3051,0.3172,0.3121,0.3077,0.3202,0.318,0.2907,0.2798,0.2876,0.2683,0.2669,0.2677,0.258,0.2582,0.2654,0.2718,0.2536,0.2013,0.2009,0.2005,0.2002,0,0,0.2689,0.2721,0.2735,0.2721,0.2767,0.2744,0.2748,0.2653,0.2644,0.2509,0.2462,0.2635,0.2757,0.2332,0.2296,0.2116,0.2367,0.2036,0.2936,0.3009,0.3068,0.3251,0.3053,0,0,0,0,0]},{"header":{"parameterUnit":"m.s-1","parameterCategory":2,"la1":30.2991,"la2":30.254,"lo1":-89.0895,"lo2":-89.0444,"dy":0.0017,"dx":0.0017,"nx":28,"ny":28,"refTime":"2025-06-14T21:00:00:Z","depth":"2","parameterNumber":3,"parameterNumberName":"V-component_of_CURRENTS"},"data":[0,0,0,0,0,0,0,0,0,0,0,0,0,0,0,0,0,0,0,0,0,0,0,0,0,0,0,0,0,0,0,0,0,0,0,0,0,0,0,0,0,0,0,0,0,0,0,0,0,0,0,0,0,0,0,0,0,0,-0.0059,-0.0059,0,-0.0129,-0.013,-0.0131,-0.0179,-0.018,-0.018,-0.018,-0.0287,-0.029,-0.0292,0,0,0,0,0,0,0,0,0,0,0,0,0,-0.0026,-0.0026,-0.0058,-0.0059,-0.006,-0.0129,-0.013,-0.0131,-0.0179,-0.018,-0.018,-0.0181,-0.0286,-0.0289,-0.0292,0,0,0,0,0,0,0,0,0,0,0,0,0,-0.0063,-0.0026,-0.0058,-0.0092,-0.0096,-0.0129,-0.013,-0.0131,-0.0179,-0.018,-0.018,-0.0181,-0.0285,-0.0289,-0.0293,-0.0307,0,0,-0.0305,-0.0306,0,0,0,0,0,0,0,0,-0.006,-0.0064,-0.0086,-0.009,-0.0094,-0.0146,-0.0158,-0.0192,-0.0179,-0.0148,-0.018,-0.0181,-0.0243,-0.025,-0.0262,-0.0312,-0.0317,-0.0305,-0.0307,-0.0309,-0.031,0,0,0,0,0,0,0,-0.0058,-0.0061,-0.0087,-0.0087,-0.0092,-0.0125,-0.013,-0.0165,-0.0193,-0.0151,-0.0154,-0.0161,-0.0245,-0.0258,-0.0265,-0.0318,-0.0305,-0.0308,-0.0311,-0.0312,-0.0384,-0.0384,0,0,0,0,0,0,-0.0044,-0.0059,-0.0085,-0.0089,-0.0078,-0.0125,-0.0131,-0.0129,-0.0192,-0.0201,-0.0161,-0.0163,-0.0252,-0.0261,-0.0269,-0.0289,-0.0309,-0.0312,-0.0315,-0.0384,-0.0384,-0.0383,0,0,0,0,0,0,-0.0043,-0.0046,-0.0082,-0.0076,-0.0083,-0.0124,-0.0122,-0.013,-0.0142,-0.0199,-0.021,-0.0165,-0.0252,-0.0264,-0.0306,-0.0294,-0.0314,-0.0318,-0.0385,-0.0384,-0.0384,-0.033,0,0,0,0,0,0,-0.0042,-0.0045,-0.0041,-0.0074,-0.0082,-0.0094,-0.0122,-0.0131,-0.0146,-0.0149,-0.0206,-0.0216,-0.0254,-0.03,-0.031,-0.03,-0.0321,-0.0385,-0.0384,-0.0384,-0.0332,-0.0327,-0.0323,0,0,0,0,0,-0.004,-0.0027,-0.004,-0.0043,-0.0075,-0.0094,-0.0101,-0.0133,-0.0145,-0.0146,-0.0192,-0.0214,-0.0302,-0.0303,-0.0315,-0.0305,-0.0386,-0.0385,-0.0384,-0.0334,-0.0328,-0.0324,0,0,0,0,0,0,-0.0012,-0.0032,-0.0046,-0.0041,-0.0064,-0.0102,-0.0104,-0.0126,-0.0161,-0.0165,-0.022,-0.0234,-0.0264,-0.0292,-0.0292,-0.0322,-0.0343,-0.0344,-0.0301,-0.0296,-0.0292,-0.0239,-0.0324,0,0,0,0,0,-0.0003,0.0002,-0.0027,-0.0024,-0.003,-0.0066,-0.0078,-0.0097,-0.0133,-0.0148,-0.0189,-0.023,-0.0269,-0.0288,-0.0326,-0.0346,-0.0348,-0.0344,-0.0339,-0.0335,-0.03,-0.0278,-0.0268,-0.0381,-0.0381,-0.0381,0,0,0.0007,-0.0003,-0.0001,-0.0018,-0.0037,-0.0033,-0.0074,-0.0083,-0.0083,-0.0154,-0.0169,-0.022,-0.0272,-0.0298,-0.0312,-0.032,-0.0315,-0.0334,-0.0331,-0.0296,-0.0276,-0.0265,-0.0254,-0.038,-0.038,-0.038,0,0,0.0037,0.0025,0.0041,0.0029,0.0009,-0.0008,-0.0006,-0.0039,-0.0057,-0.0082,-0.0133,-0.0163,-0.0228,-0.0252,-0.0276,-0.0264,-0.0295,-0.0292,-0.0226,-0.0207,-0.0196,-0.0187,-0.0218,-0.0212,-0.0286,-0.0286,-0.0286,0,0.005,0.0068,0.004,0.0053,0.005,0.0011,0.0028,0.0008,-0.0037,-0.0037,-0.0075,-0.0133,-0.0191,-0.0198,-0.0212,-0.0249,-0.0267,-0.0245,-0.0198,-0.0189,-0.018,-0.0213,-0.0207,-0.0284,-0.0284,-0.0284,-0.0284,0,0.009,0.0104,0.0114,0.0121,0.0112,0.0122,0.0094,0.0097,0.0071,0.0047,0.0033,-0.0039,-0.006,-0.01,-0.0165,-0.0139,-0.0185,-0.0198,-0.0205,-0.0165,-0.0204,-0.0199,-0.028,-0.0281,-0.0281,-0.0282,0,0,0.0133,0.0142,0.0149,0.0169,0.0152,0.016,0.0172,0.0178,0.0224,0.0159,0.0202,0.0108,0.0079,0.0052,-0.0021,-0.0024,-0.0022,-0.0093,-0.0093,-0.0113,-0.0021,-0.0071,-0.0071,-0.0034,-0.0032,-0.003,-0.0088,0,0.0177,0.0221,0.0208,0.0258,0.0281,0.0262,0.0299,0.0298,0.0284,0.0316,0.0249,0.0241,0.0132,0.0119,0.0103,0.0024,0.0002,-0.0007,-0.0064,-0.0066,-0.0105,-0.0061,-0.003,-0.0079,-0.0083,-0.0082,-0.0081,0,0.0227,0.0251,0.0299,0.0358,0.0372,0.0399,0.0468,0.0484,0.0505,0.0506,0.0489,0.0422,0.0387,0.0297,0.0218,0.0211,0.0101,0.0032,0.0028,-0.0018,-0.0102,-0.0112,-0.0069,-0.0072,-0.0073,-0.0074,-0.0074,0,0.028,0.0326,0.0371,0.038,0.0433,0.0473,0.0504,0.0541,0.0607,0.0609,0.0666,0.06,0.0598,0.0479,0.0296,0.0259,0.0213,0.0152,0.0002,-0.0006,0.0016,0.0008,0.0107,0.0108,0.0108,0.0108,0.0108,0,0.0335,0.0381,0.0408,0.0437,0.0546,0.0537,0.0661,0.0695,0.0777,0.0882,0.0762,0.083,0.0647,0.0571,0.0378,0.022,0.0279,0.0037,-0.0001,0.0027,0.002,0.0032,0.0024,0.0106,0.0106,0.0107,0.0107,0,0.0384,0.0397,0.0469,0.0535,0.0572,0.064,0.0777,0.0878,0.093,0.1067,0.107,0.1033,0.092,0.0711,0.0528,0.0353,0.018,0.0093,0.0106,0.0071,-0.0086,-0.009,-0.0062,-0.0064,-0.0065,-0.0067,-0.0068,0,0.0412,0.0447,0.0541,0.0622,0.0657,0.0764,0.087,0.0948,0.1065,0.1192,0.1278,0.1197,0.1149,0.0856,0.054,0.0223,0.017,0.0033,-0.0024,-0.0051,-0.0092,-0.0094,-0.0097,-0.0003,-0.0003,-0.0004,-0.0004,0,0.0472,0.0501,0.0566,0.0729,0.084,0.0983,0.1125,0.1247,0.1356,0.1452,0.155,0.1501,0.1222,0.0915,0.0491,0.0273,0.0087,0.0013,0.004,0.0031,-0.0,-0.0039,-0.0042,-0.0007,-0.0007,-0.0006,-0.0006,-0.0006,0.0529,0.0595,0.07,0.0858,0.1005,0.1197,0.1309,0.1453,0.162,0.1742,0.1711,0.1623,0.1314,0.0749,0.0411,0.0052,0.0054,-0.009,-0.0086,-0.0082,-0.0069,-0.0101,-0.0127,-0.0128,-0.0128,-0.0128,-0.0129,0,0.0609,0.0692,0.084,0.1033,0.1207,0.1267,0.1491,0.1575,0.1724,0.1795,0.1807,0.1481,0.1151,0.0786,0.026,-0.0059,-0.0075,-0.0165,-0.0108,-0.0102,-0.0098,-0.0083,-0.0147,-0.0148,-0.0149,-0.015,0,0,0.0666,0.0802,0.0875,0.1169,0.1313,0.1513,0.1626,0.1719,0.1792,0.1801,0.1739,0.1639,0.1232,0.0844,0.0437,0.0145,0.0085,0.0079,0.0128,0.0249,0.0257,-0.0021,0.0011,0,0,0,0,0]}],[{"header":{"parameterUnit":"m.s-1","parameterCategory":2,"la1":30.2991,"la2":30.254,"lo1":-89.0895,"lo2":-89.0444,"dy":0.0017,"dx":0.0017,"nx":28,"ny":28,"refTime":"2025-06-14T21:00:00:Z","depth":"4","parameterNumber":2,"parameterNumberName":"U-component_of_CURRENTS"},"data":[0,0,0,0,0,0,0,0,0,0,0,0,0,0,0,0,0,0,0,0,0,0,0,0,0,0,0,0,0,0,0,0,0,0,0,0,0,0,0,0,0,0,0,0,0,0,0,0,0,0,0,0,0,0,0,0,0,0,0.1702,0.1703,0,0.1681,0.1681,0.168,0.1708,0.171,0.1711,0.1713,0.1729,0.1728,0.1727,0,0,0,0,0,0,0,0,0,0,0,0,0,0.1656,0.1657,0.1702,0.1703,0.1703,0.1681,0.1681,0.168,0.1708,0.171,0.1712,0.1713,0.1729,0.1728,0.1727,0,0,0,0,0,0,0,0,0,0,0,0,0,0.1655,0.1657,0.1702,0.1718,0.1719,0.1682,0.1681,0.168,0.1708,0.171,0.1712,0.1714,0.173,0.1728,0.1727,0.1674,0,0,0.1723,0.1722,0,0,0,0,0,0,0,0,0.1655,0.1656,0.1715,0.1717,0.1719,0.1704,0.1671,0.1681,0.1707,0.1707,0.1713,0.1715,0.1726,0.1725,0.1708,0.1675,0.1676,0.1723,0.1722,0.1721,0.1721,0,0,0,0,0,0,0,0.1655,0.1657,0.1689,0.1716,0.1717,0.1688,0.1691,0.1672,0.1701,0.1707,0.171,0.1715,0.1727,0.171,0.1709,0.1676,0.1723,0.1721,0.1721,0.172,0.1771,0.1773,0,0,0,0,0,0,0.1671,0.1657,0.169,0.1689,0.1697,0.1688,0.1691,0.1702,0.1701,0.1703,0.1713,0.1717,0.1711,0.1711,0.171,0.1747,0.1721,0.172,0.1719,0.1768,0.1771,0.1773,0,0,0,0,0,0,0.1671,0.1675,0.1691,0.1676,0.1677,0.1688,0.17,0.1701,0.1731,0.1706,0.1709,0.1749,0.1713,0.1712,0.1749,0.1745,0.1719,0.1718,0.1766,0.1769,0.1772,0.1757,0,0,0,0,0,0,0.1669,0.1674,0.1699,0.1677,0.1679,0.1699,0.1698,0.1699,0.173,0.1736,0.1736,0.1737,0.1714,0.1752,0.1748,0.1742,0.1717,0.1763,0.1767,0.1771,0.1755,0.176,0.1764,0,0,0,0,0,0.1668,0.1688,0.17,0.1705,0.1708,0.17,0.1698,0.1708,0.1731,0.1744,0.1764,0.174,0.1775,0.1752,0.1747,0.1741,0.1761,0.1766,0.1771,0.1753,0.1759,0.1764,0,0,0,0,0,0,0.1678,0.1693,0.1705,0.1731,0.1733,0.1708,0.1726,0.1732,0.1753,0.1776,0.1758,0.176,0.1784,0.1786,0.1761,0.1777,0.1767,0.1771,0.1755,0.176,0.1765,0.1851,0.1716,0,0,0,0,0,0.1692,0.1717,0.1717,0.1741,0.175,0.1747,0.1752,0.1759,0.1768,0.1781,0.1783,0.1796,0.1789,0.18,0.1794,0.1802,0.1858,0.1804,0.1809,0.1812,0.1885,0.2004,0.2026,0.179,0.179,0.1789,0,0,0.1701,0.1715,0.1729,0.1746,0.1752,0.1738,0.1756,0.1778,0.1774,0.1778,0.1799,0.1806,0.1798,0.1802,0.1814,0.181,0.1889,0.1818,0.182,0.1894,0.2012,0.2035,0.2055,0.1793,0.1792,0.1792,0,0,0.1711,0.175,0.1766,0.1768,0.1789,0.1771,0.179,0.1794,0.1818,0.1835,0.1833,0.1882,0.1856,0.1866,0.186,0.1901,0.1905,0.1874,0.1961,0.2072,0.2093,0.2113,0.2124,0.2145,0.1879,0.1879,0.1879,0,0.1726,0.1736,0.1768,0.1771,0.1759,0.1789,0.1772,0.1789,0.1807,0.1847,0.1857,0.1907,0.1896,0.1922,0.1942,0.1909,0.1952,0.1921,0.2078,0.2099,0.212,0.2128,0.2152,0.1879,0.1879,0.1879,0.1879,0,0.1726,0.1738,0.175,0.1751,0.1742,0.1744,0.1752,0.1807,0.1841,0.1855,0.1936,0.1957,0.2015,0.1984,0.1975,0.2089,0.2058,0.2058,0.2059,0.2143,0.2144,0.2169,0.1879,0.1879,0.1879,0.1879,0,0,0.1735,0.1746,0.1753,0.1735,0.173,0.1715,0.1757,0.1789,0.1857,0.1912,0.201,0.2024,0.2101,0.2112,0.2108,0.2209,0.2339,0.2214,0.2219,0.2216,0.2532,0.2302,0.2305,0.2369,0.2376,0.2381,0.2441,0,0.1722,0.1706,0.1712,0.1674,0.1647,0.1695,0.1731,0.1782,0.1842,0.1959,0.2055,0.213,0.2118,0.2178,0.2281,0.2346,0.2422,0.232,0.2466,0.247,0.225,0.2334,0.2402,0.246,0.2466,0.247,0.2473,0,0.1705,0.1686,0.1652,0.1642,0.1646,0.1641,0.1719,0.1771,0.1945,0.2021,0.2158,0.2231,0.2395,0.239,0.2579,0.2518,0.2558,0.2594,0.2596,0.2433,0.2291,0.2387,0.2518,0.2514,0.2511,0.2508,0.2505,0,0.1655,0.1638,0.1603,0.159,0.1599,0.1639,0.1684,0.1808,0.1897,0.2106,0.2209,0.2374,0.2526,0.263,0.2701,0.2679,0.2892,0.285,0.2659,0.2637,0.283,0.281,0.3013,0.3013,0.3013,0.3013,0.3013,0,0.1607,0.1586,0.1592,0.1569,0.1574,0.1617,0.1699,0.18,0.1992,0.2117,0.2268,0.2387,0.2625,0.2744,0.2767,0.2775,0.2939,0.2718,0.2675,0.2804,0.2782,0.284,0.282,0.3015,0.3014,0.3014,0.3014,0,0.1552,0.1566,0.1516,0.1528,0.1546,0.1565,0.1695,0.1779,0.1977,0.2168,0.226,0.2492,0.265,0.2759,0.294,0.2849,0.2866,0.2813,0.2902,0.2855,0.2513,0.2491,0.2636,0.2629,0.2623,0.2618,0.2614,0,0.1518,0.1493,0.1474,0.1463,0.1469,0.1528,0.1593,0.1766,0.1866,0.2181,0.2268,0.251,0.2634,0.2675,0.2793,0.2794,0.2759,0.2718,0.268,0.255,0.2494,0.2481,0.2467,0.2605,0.2603,0.2602,0.26,0,0.1427,0.1442,0.1399,0.1398,0.1413,0.1441,0.1555,0.1614,0.1875,0.2058,0.2242,0.2332,0.25,0.2591,0.2611,0.2596,0.2727,0.2658,0.267,0.2635,0.2514,0.2461,0.2454,0.258,0.2583,0.2585,0.2586,0,0.137,0.1322,0.1311,0.1297,0.1335,0.1363,0.1408,0.1538,0.1672,0.2025,0.2072,0.2292,0.2511,0.2484,0.248,0.2471,0.2446,0.235,0.2378,0.2401,0.2292,0.2102,0.2048,0,0,0,0,0,0.13,0.1256,0.1225,0.1197,0.125,0.1286,0.1404,0.1477,0.1717,0.1802,0.195,0.2078,0.2164,0.2238,0.2186,0.2336,0.242,0.2255,0.2316,0.247,0.2493,0.2382,0,0,0,0,0,0,0.1247,0.1217,0.1185,0.1158,0.1151,0.12,0.1264,0.1394,0.1455,0.1707,0.176,0.1945,0.2039,0.2207,0.2159,0.2176,0.2162,0.2377,0.237,0.2457,0.2478,0.2496,0.2391,0,0,0,0,0]},{"header":{"parameterUnit":"m.s-1","parameterCategory":2,"la1":30.2991,"la2":30.254,"lo1":-89.0895,"lo2":-89.0444,"dy":0.0017,"dx":0.0017,"nx":28,"ny":28,"refTime":"2025-06-14T21:00:00:Z","depth":"4","parameterNumber":3,"parameterNumberName":"V-component_of_CURRENTS"},"data":[0,0,0,0,0,0,0,0,0,0,0,0,0,0,0,0,0,0,0,0,0,0,0,0,0,0,0,0,0,0,0,0,0,0,0,0,0,0,0,0,0,0,0,0,0,0,0,0,0,0,0,0,0,0,0,0,0,0,0.0006,0.0006,0,-0.0024,-0.0024,-0.0024,-0.0049,-0.0049,-0.005,-0.005,-0.0092,-0.0093,-0.0094,0,0,0,0,0,0,0,0,0,0,0,0,0,0.0023,0.0023,0.0006,0.0005,0.0005,-0.0024,-0.0024,-0.0024,-0.0049,-0.0049,-0.005,-0.005,-0.0092,-0.0093,-0.0094,0,0,0,0,0,0,0,0,0,0,0,0,0,0.0007,0.0023,0.0006,-0.0011,-0.0013,-0.0024,-0.0024,-0.0024,-0.0049,-0.0049,-0.005,-0.005,-0.0092,-0.0093,-0.0094,-0.0091,0,0,-0.0098,-0.0098,0,0,0,0,0,0,0,0,0.0008,0.0007,-0.0008,-0.001,-0.0012,-0.0034,-0.0034,-0.0048,-0.0049,-0.0034,-0.005,-0.0051,-0.0074,-0.0077,-0.008,-0.0093,-0.0095,-0.0098,-0.0099,-0.0099,-0.0099,0,0,0,0,0,0,0,0.0009,0.0008,-0.0005,-0.0009,-0.0011,-0.0024,-0.0027,-0.0036,-0.0051,-0.0036,-0.0038,-0.0042,-0.0075,-0.0079,-0.0081,-0.0095,-0.0098,-0.0099,-0.01,-0.01,-0.0128,-0.0128,0,0,0,0,0,0,0.0013,0.0009,-0.0004,-0.0006,-0.0004,-0.0024,-0.0027,-0.0026,-0.005,-0.0055,-0.0042,-0.0043,-0.0076,-0.008,-0.0083,-0.0063,-0.0099,-0.01,-0.0101,-0.0128,-0.0128,-0.0128,0,0,0,0,0,0,0.0013,0.0012,-0.0003,-0.0,-0.0003,-0.0024,-0.0022,-0.0026,-0.0031,-0.0055,-0.0059,-0.0043,-0.0077,-0.0081,-0.0094,-0.0065,-0.0101,-0.0102,-0.0128,-0.0128,-0.0128,-0.0035,0,0,0,0,0,0,0.0014,0.0013,0.0016,0.0,-0.0003,-0.0003,-0.0022,-0.0026,-0.0033,-0.0035,-0.0057,-0.0062,-0.0077,-0.0092,-0.0095,-0.0068,-0.0103,-0.0128,-0.0128,-0.0128,-0.0038,-0.0032,-0.0026,0,0,0,0,0,0.0015,0.0025,0.0017,0.0015,0.0002,-0.0002,-0.0005,-0.0021,-0.0032,-0.0028,-0.0049,-0.0061,-0.0095,-0.0093,-0.0096,-0.0069,-0.0128,-0.0128,-0.0128,-0.004,-0.0033,-0.0026,0,0,0,0,0,0,0.0034,0.0023,0.0013,0.0019,0.001,-0.0007,-0.0005,-0.0018,-0.003,-0.0034,-0.0059,-0.0065,-0.0068,-0.0089,-0.0087,-0.0082,-0.0114,-0.0115,-0.0046,-0.0039,-0.0033,-0.002,-0.0104,0,0,0,0,0,0.004,0.0044,0.0029,0.0034,0.0031,0.0013,0.0009,-0.0001,-0.0016,-0.0022,-0.0035,-0.0056,-0.0071,-0.0072,-0.0092,-0.0083,-0.0125,-0.0072,-0.0066,-0.006,-0.0055,-0.0103,-0.0101,-0.0129,-0.0129,-0.0129,0,0,0.0048,0.0042,0.0044,0.0038,0.0029,0.0044,0.001,0.0008,0.0029,-0.0024,-0.0003,-0.0038,-0.0069,-0.0062,-0.0064,-0.0073,-0.0076,-0.0061,-0.0055,-0.0053,-0.0103,-0.01,-0.0098,-0.0129,-0.0129,-0.0129,0,0,0.007,0.0061,0.0074,0.0076,0.0068,0.0063,0.0064,0.0053,0.0055,0.0062,0.0027,0.0005,-0.0005,-0.0021,-0.0031,-0.0008,-0.0051,-0.0013,0.0043,-0.0004,-0.0001,0.0,-0.0048,-0.0051,0.0,0.0,0.0,0,0.008,0.0098,0.0077,0.0096,0.011,0.0077,0.0106,0.0107,0.0095,0.0103,0.0079,0.0044,0.0016,0.0022,0.0029,0.0009,-0.0029,0.0027,0.0006,0.0006,0.0006,-0.0043,-0.0048,0.0005,0.0004,0.0004,0.0003,0,0.0116,0.0135,0.0144,0.0164,0.0175,0.0192,0.0194,0.0212,0.0204,0.0193,0.0187,0.0136,0.0117,0.0104,0.0078,0.0072,0.0041,0.0014,-0.0004,0.0015,-0.0039,-0.0046,0.0011,0.001,0.0008,0.0007,0,0,0.0135,0.0164,0.0171,0.0201,0.0217,0.0235,0.028,0.0305,0.0334,0.0303,0.0323,0.0282,0.0236,0.0219,0.0174,0.0134,0.0099,0.0085,0.008,0.0051,-0.0006,-0.0005,-0.0014,0.0071,0.007,0.007,-0.0042,0,0.0173,0.0226,0.0234,0.0303,0.0334,0.0346,0.04,0.0419,0.041,0.042,0.0358,0.0348,0.0287,0.0276,0.0226,0.0127,0.0085,0.0132,-0.0033,-0.0038,-0.0028,-0.002,0.0067,-0.0048,-0.0049,-0.0051,-0.0052,0,0.0211,0.0246,0.0313,0.0391,0.0409,0.0453,0.0528,0.0571,0.0573,0.0565,0.0526,0.0461,0.0406,0.0342,0.0193,0.0226,0.0123,0.0037,0.003,-0.0005,-0.0049,-0.0076,-0.0065,-0.0064,-0.0063,-0.0062,-0.0061,0,0.0241,0.031,0.0368,0.0392,0.0469,0.0523,0.0577,0.0612,0.066,0.0647,0.0649,0.0558,0.0519,0.0377,0.0201,0.0199,0.0016,-0.0009,-0.0109,-0.0111,-0.0119,-0.012,-0.0117,-0.0117,-0.0117,-0.0117,-0.0116,0,0.0281,0.0333,0.0391,0.0429,0.0538,0.0574,0.0682,0.072,0.0755,0.0799,0.0722,0.0704,0.0525,0.0394,0.0226,0.0039,0.0035,-0.0098,-0.0136,-0.0078,-0.0073,-0.0124,-0.0123,-0.0121,-0.012,-0.0119,-0.0118,0,0.03,0.0333,0.0417,0.051,0.0553,0.0636,0.077,0.0835,0.0864,0.091,0.0911,0.0814,0.0656,0.0456,0.0219,0.009,-0.0103,-0.0171,-0.0093,-0.0126,-0.0205,-0.0199,-0.028,-0.0281,-0.0281,-0.0282,-0.0283,0,0.0312,0.035,0.0473,0.0544,0.0593,0.0719,0.0815,0.0891,0.0944,0.0965,0.0973,0.0854,0.0762,0.0431,0.0217,-0.0086,-0.0133,-0.0226,-0.0215,-0.0191,-0.0221,-0.0213,-0.0206,-0.0284,-0.0284,-0.0284,-0.0284,0,0.0342,0.0382,0.045,0.0588,0.0698,0.083,0.0949,0.0992,0.1068,0.1084,0.1025,0.0868,0.0692,0.0436,0.021,-0.0017,-0.016,-0.0234,-0.0234,-0.0225,-0.0197,-0.0224,-0.0216,-0.0287,-0.0286,-0.0286,-0.0286,0,0.0367,0.0421,0.0511,0.0638,0.077,0.0891,0.0964,0.1025,0.1086,0.109,0.1059,0.0876,0.0775,0.0469,0.0245,0.0043,-0.0009,-0.0077,-0.0087,-0.0086,0.0002,0.0068,0.0031,0,0,0,0,0,0.0391,0.0453,0.0561,0.07,0.0821,0.0901,0.103,0.1084,0.1135,0.1104,0.1089,0.092,0.0622,0.0485,0.0284,0.0217,-0.0054,-0.0026,-0.014,-0.03,-0.0297,-0.0226,0,0,0,0,0,0,0.0416,0.0501,0.0555,0.0713,0.0806,0.0949,0.1031,0.1071,0.1054,0.1067,0.0906,0.0859,0.0559,0.0729,0.0272,0.0213,0.0112,-0.0158,-0.0163,-0.0302,-0.0299,-0.0297,-0.0222,0,0,0,0,0]}]]